Weather History for Marathon, FL

Change the Weather History Date:

Wednesday, September 11, 2013

  Actual Average Record
Temperature  
Mean Temperature 83 °F 84 °F  
Max Temperature 90 °F 90 °F 93 °F (2011)
Min Temperature 75 °F 79 °F 75 °F (2002)
Degree Days  
Heating Degree Days 0 0  
Month to date heating degree days 0 0  
Since 1 July heating degree days 0 0  
Cooling Degree Days 18 19  
Month to date cooling degree days 225 212  
Year to date cooling degree days 3946 3598  
Growing Degree Days 35 (Base 50)    
Moisture  
Dew Point 74 °F    
Average Humidity 69    
Maximum Humidity 79    
Minimum Humidity 59    
Precipitation  
Precipitation 0.42 in 0.27 in 0.42 in (2013)
Month to date precipitation 0.79 2.94  
Year to date precipitation 40.02 31.76  
Snow  
Snow 0.00 in - - ()
Month to date snowfall 0.0  
Since 1 July snowfall 0.0  
Since 1 September snowfall 0.0  
Snow Depth 0.00 in    
Sea Level Pressure  
Sea Level Pressure 29.98 in    
Wind  
Wind Speed 7 mph (SE)    
Max Wind Speed 17 mph    
Max Gust Speed 26 mph    
Visibility 10 miles    
Events Thunderstorm    
T = Trace of Precipitation, MM = Missing Value Source: NWS Daily Summary

Daily Weather History Graph

Daily Weather History Graph

Search for Another Location

Airport:

Trip Planner

Search our weather history database for the weather conditions in past years. The results will help you decide how hot, cold, wet, or windy it might be!

Date:

Astronomy

Sep. 11, 2013 Rise Set
Actual Time 7:08 AM EDT 7:32 PM EDT
Civil Twilight 6:46 AM EDT 7:54 PM EDT
Nautical Twilight 6:19 AM EDT 8:21 PM EDT
Astronomical Twilight 5:52 AM EDT 8:48 PM EDT
Moon 12:56 PM EDT (9/11) No Moon Set
Length of Visible Light 13h 08m
Length of Day
12h 23m
Waxing Crescent, 38% of the Moon is Illuminated
Sep 11
Waxing Crescent
Sep 12
First Quarter
Sep 19
Full
Sep 26
Last Quarter
Oct 4
New

Hourly Weather History & Observations

Time (EDT) Temp. Heat Index Dew Point Humidity Pressure Visibility Wind Dir Wind Speed Gust Speed Precip Events Conditions
12:53 AM 81.0 °F 86.2 °F 73.9 °F 79% 29.99 in 10.0 mi SE 6.9 mph - N/A   Partly Cloudy
1:53 AM 82.0 °F 87.9 °F 73.9 °F 76% 29.97 in 10.0 mi ESE 3.5 mph - N/A   Partly Cloudy
2:53 AM 82.0 °F 87.4 °F 73.0 °F 74% 29.96 in 10.0 mi East 4.6 mph - N/A   Clear
3:53 AM 82.0 °F 87.4 °F 73.0 °F 74% 29.94 in 10.0 mi East 5.8 mph - N/A   Scattered Clouds
4:53 AM 81.0 °F 86.2 °F 73.9 °F 79% 29.95 in 10.0 mi East 5.8 mph - N/A   Scattered Clouds
5:12 AM 82.4 °F 88.2 °F 73.4 °F 74% 29.95 in 10.0 mi Variable 4.6 mph - N/A   Mostly Cloudy
5:21 AM 82.4 °F 88.2 °F 73.4 °F 74% 29.95 in 10.0 mi ESE 4.6 mph - N/A   Scattered Clouds
5:53 AM 82.0 °F 87.9 °F 73.9 °F 76% 29.96 in 10.0 mi ESE 6.9 mph - N/A   Partly Cloudy
6:53 AM 82.0 °F 87.4 °F 73.0 °F 74% 29.97 in 10.0 mi ESE 5.8 mph - N/A   Partly Cloudy
7:53 AM 82.0 °F 85.9 °F 70.0 °F 67% 29.99 in 10.0 mi ESE 6.9 mph - N/A   Partly Cloudy
8:36 AM 82.4 °F 88.2 °F 73.4 °F 74% 30.00 in 10.0 mi East 4.6 mph - N/A Thunderstorm Partly Cloudy
8:51 AM 84.2 °F 92.3 °F 75.2 °F 74% 30.00 in 10.0 mi East 9.2 mph - N/A   Scattered Clouds
8:53 AM 84.0 °F 91.9 °F 75.0 °F 74% 30.00 in 10.0 mi East 9.2 mph - N/A   Scattered Clouds
9:53 AM 86.0 °F 93.0 °F 73.0 °F 65% 30.01 in 10.0 mi East 8.1 mph 18.4 mph N/A   Clear
10:53 AM 87.1 °F 96.3 °F 75.0 °F 67% 30.00 in 10.0 mi ESE 9.2 mph 16.1 mph N/A   Clear
11:53 AM 89.1 °F 100.2 °F 75.9 °F 65% 30.01 in 10.0 mi SE 6.9 mph - N/A   Partly Cloudy
12:53 PM 84.9 °F 93.3 °F 75.0 °F 72% 30.01 in 10.0 mi SSE 6.9 mph 16.1 mph 0.02 in   Mostly Cloudy
1:53 PM 89.1 °F 100.2 °F 75.9 °F 65% 29.99 in 10.0 mi SSE 8.1 mph - N/A   Partly Cloudy
2:53 PM 89.1 °F 97.0 °F 73.0 °F 59% 29.98 in 10.0 mi SE 10.4 mph 16.1 mph N/A   Clear
3:53 PM 87.1 °F 97.3 °F 75.9 °F 69% 29.97 in 10.0 mi SE 6.9 mph - N/A   Mostly Cloudy
4:15 PM 86.0 °F 95.1 °F 75.2 °F 70% 29.97 in 10.0 mi ESE 9.2 mph 18.4 mph N/A   Overcast
4:23 PM 87.8 °F 97.6 °F 75.2 °F 66% 29.97 in 10.0 mi ESE 10.4 mph 16.1 mph N/A   Mostly Cloudy
4:53 PM 84.9 °F 94.1 °F 75.9 °F 74% 29.97 in 10.0 mi ESE 9.2 mph 17.3 mph N/A   Mostly Cloudy
5:53 PM 84.9 °F 93.3 °F 75.0 °F 72% 29.99 in 10.0 mi ESE 6.9 mph - N/A   Overcast
6:53 PM 84.9 °F 92.1 °F 73.9 °F 69% 29.97 in 10.0 mi ESE 8.1 mph - N/A   Mostly Cloudy
7:53 PM 84.0 °F 91.2 °F 73.9 °F 72% 29.98 in 10.0 mi SE 8.1 mph - N/A   Scattered Clouds
8:53 PM 84.0 °F 91.2 °F 73.9 °F 72% 29.98 in 10.0 mi SE 8.1 mph - N/A   Clear
9:53 PM 84.0 °F 91.9 °F 75.0 °F 74% 29.99 in 10.0 mi South 8.1 mph - N/A   Partly Cloudy
10:53 PM 82.9 °F 89.4 °F 73.9 °F 74% 30.00 in 10.0 mi SSW 4.6 mph - N/A   Mostly Cloudy
11:03 PM 82.4 °F 89.5 °F 75.2 °F 79% 30.00 in 10.0 mi Calm Calm - N/A   Mostly Cloudy
11:53 PM 82.9 °F 90.2 °F 75.0 °F 77% 30.00 in 10.0 mi SSW 4.6 mph - N/A   Partly Cloudy